We konden geen weer-waarchuwingen ophalen. Ga rechtstreeks naar de Meteoalarm site : www.meteoalarm.eu en controleer daar .



Onweer radar Meer informatie blitzortung!


Regen radar Meer informatie rain snow radar


Bezoek onze andere website:

Template documentation
and downloads

And another site



15 daagse weersverwachting Riehen (CH)

  • Overzicht
  • Per uur
  • 15 dagen
  • Extra
  • Vergelijk
  • Kaarten
  • Dagkaart
  • Meer »
  • Info
  • Statistieken
  • Directe link
    Temp 6h Neerslag Wind  
 06:30     20:38    Daglengte: 14:08 Vandaag
14:00
28°
 
2
20:00
26°
 
3
 06:31     20:36    Daglengte: 14:05 Morgen
02:00
20°
4.3 mm
1
08:00
19°
5.5 mm
2
14:00
23°
2.6 mm
3
20:00
20°
2.9 mm
3
 06:32     20:34    Daglengte: 14:02 Vrijdag 19 Aug
02:00
19°
6.4 mm
2
warningclass
08:00
18°
3.6 mm
2
14:00
23°
10.5 mm
2
20:00
23°
15.1 mm
2
 06:34     20:32    Daglengte: 13:58 Zaterdag 20 Aug
02:00
18°
6.1 mm
1
08:00
18°
 
2
Locatie info
Region: Basel-Stadt
Latitude: 47.5844°N
Longitude: 7.6495°E
280 masl
Postcode: 4125
Temp/Neerslag /Baro Onweer/Dauwpunt
    Temp Baro 1h Neerslag Dauwpunt Wind UV Bewolking  
 06:30     20:38    Daglengte: 14:08 Vandaag
13:00
27°
1011.1 hPa
14%
13.4°
2
Windvlaag: 2.5 m/s
31%
14:00
28°
Voelt als: 27.9°
1010.8 hPa
30%
13.2°
2
Windvlaag: -0.5 m/s
39%
15:00
29°
Voelt als: 28.2°
1010.4 hPa
17%
12.7°
2
Windvlaag: -2.8 m/s
51%
16:00
28°
Voelt als: 28.3°
1010.2 hPa
31%
14.9°
3
Windvlaag: -1.6 m/s
62%
17:00
28°
Voelt als: 28.0°
1009.9 hPa
78%
13.9°
3
Windvlaag: -3.4 m/s
78%
18:00
28°
Voelt als: 27.8°
1010.0 hPa
31%
14.2°
3
Windvlaag: -3.9 m/s
57%
19:00
27°
1009.9 hPa
25%
14.5°
2
Windvlaag: -3.3 m/s
77%
20:00
26°
1010.4 hPa
82%
14.9°
3
Windvlaag: 2.9 m/s
84%
21:00
24°
1011.2 hPa 1.2 mm
82%
14.1°
3
Windvlaag: 5.8 m/s
85%
22:00
23°
1011.6 hPa
80%
13.7°
3
Windvlaag: 5.6 m/s
83%
23:00
21°
1011.8 hPa 1.5 mm
82%
14.5°
2
Windvlaag: 4.1 m/s
84%
 06:31     20:36    Daglengte: 14:05 Morgen
00:00
20°
1012.1 hPa 1.6 mm
82%
15.8°
2
Windvlaag: 4.1 m/s
83%
01:00
20°
1011.9 hPa
82%
16.9°
1
Windvlaag: 3.8 m/s
79%
02:00
20°
1011.4 hPa
40%
17.5°
1
Windvlaag: 2.7 m/s
78%
03:00
19°
1011.2 hPa
81%
17.7°
1
Windvlaag: 2.1 m/s
82%
04:00
19°
1011.2 hPa
82%
17.7°
1
Windvlaag: 1.2 m/s
70%
05:00
19°
1011.1 hPa 1.9 mm
77%
17.3°
2
Windvlaag: 1.7 m/s
73%
06:00
19°
1011.1 hPa 1.6 mm
80%
16.8°
2
Windvlaag: 1.3 m/s
82% warningclass
07:00
18°
1011.5 hPa 2.0 mm
82%
16.4°
2
Windvlaag: 1.1 m/s
83% warningclass
08:00
19°
1011.7 hPa
82%
16.7°
2
Windvlaag: 1.6 m/s
78%
09:00
19°
1011.7 hPa
81%
17.6°
1
Windvlaag: 0.8 m/s
83%
10:00
20°
1012.0 hPa
82%
17.9°
1
Windvlaag: 2.2 m/s
76%
11:00
21°
1012.2 hPa 1.3 mm
82%
18.2°
2
Windvlaag: 0.5 m/s
71%
12:00
21°
1012.2 hPa 1.3 mm
82%
18.2°
2
Windvlaag: 0.2 m/s
58%
13:00
22°
1011.8 hPa
82%
18.6°
2
Windvlaag: -0.7 m/s
52%
14:00
23°
1011.6 hPa
82%
18.8°
3
Windvlaag: -2.1 m/s
58%
15:00
23°
1011.4 hPa
82%
18.9°
3
Windvlaag: -1.7 m/s
77%
16:00
23°
1011.4 hPa
82%
18.6°
4
Windvlaag: 0.1 m/s
82%
17:00
22°
1011.2 hPa 1.1 mm
82%
17.7°
4
Windvlaag: 0.5 m/s
53%
18:00
22°
1011.4 hPa
82%
16.5°
3
Windvlaag: 0.3 m/s
63% warningclass
19:00
21°
1011.8 hPa 1.8 mm
82%
15.9°
3
Windvlaag: -1 m/s
72%
20:00
20°
1012.0 hPa
39%
16.2°
3
Windvlaag: -1.3 m/s
60%
21:00
20°
1012.4 hPa
29%
16.7°
2
Windvlaag: 0.4 m/s
62%
22:00
19°
1012.9 hPa
26%
16.8°
2
Windvlaag: 0.4 m/s
64%
23:00
19°
1013.5 hPa 1.4 mm
76%
16.7°
2
Windvlaag: 0.8 m/s
85% warningclass
 06:32     20:34    Daglengte: 14:02 Vrijdag 19 Aug
00:00
19°
1013.8 hPa 1.7 mm
77%
16.9°
2
Windvlaag: -0.1 m/s
85% warningclass
01:00
19°
1014.0 hPa 1.6 mm
77%
17.0°
2
Windvlaag: 0.8 m/s
85% warningclass
02:00
19°
1014.0 hPa 1.7 mm
79%
16.7°
2
Windvlaag: 0.5 m/s
84% warningclass
03:00
18°
1013.9 hPa 1.8 mm
82%
16.6°
2
Windvlaag: 0.3 m/s
85% warningclass
04:00
18°
1013.7 hPa 1.8 mm
82%
16.6°
2
Windvlaag: 1.2 m/s
86% warningclass
05:00
18°
1014.1 hPa
82%
16.6°
2
Windvlaag: 1.8 m/s
86% warningclass
06:00
18°
1014.3 hPa
82%
16.8°
2
Windvlaag: 1.6 m/s
85%
07:00
18°
1015.0 hPa
82%
17.2°
2
Windvlaag: 1.8 m/s
86%
08:00
18°
1015.2 hPa
82%
17.1°
2
Windvlaag: 1.8 m/s
85%
09:00
19°
1015.8 hPa
77%
17.0°
2
Windvlaag: 1.9 m/s
76%
10:00
20°
1016.1 hPa
72%
16.6°
2
Windvlaag: 1.8 m/s
73%
11:00
20°
1015.8 hPa 5.0 mm
98%
18.9°
3
Windvlaag: 1.2 m/s
57%
12:00
21°
1015.7 hPa 5.5 mm
58%
18.9°
3
Windvlaag: 0.9 m/s
45%
13:00
22°
1015.6 hPa
92%
18.9°
3
Windvlaag: 1.2 m/s
34%
14:00
23°
1015.6 hPa
36%
18.9°
2
Windvlaag: 1.2 m/s
70%
15:00
24°
1015.6 hPa
75%
19.9°
2
Windvlaag: 0.8 m/s
27%
16:00
24°
1015.8 hPa 3.5 mm
93%
19.5°
3
Windvlaag: 0.9 m/s
23%
17:00
24°
1015.4 hPa
100%
19.3°
3
Windvlaag: 0.1 m/s
33%
18:00
24°
1015.6 hPa 5.8 mm
100%
18.2°
3
Windvlaag: 0.3 m/s
54%
19:00
24°
1015.7 hPa
100%
16.4°
2
Windvlaag: 0 m/s
47%
20:00
23°
1016.1 hPa 5.9 mm
90%
16.9°
2
Windvlaag: 0.4 m/s
82%
21:00
21°
1016.8 hPa 6.1 mm
42%
15.6°
2
Windvlaag: 1.6 m/s
45%
22:00
21°
1017.2 hPa
24%
14.9°
1
Windvlaag: 3.8 m/s
28%
23:00
20°
1017.6 hPa
21%
13.8°
2
Windvlaag: 3.3 m/s
12%
 06:34     20:32    Daglengte: 13:58 Zaterdag 20 Aug
00:00
19°
1017.8 hPa
21%
12.9°
2
Windvlaag: 3.3 m/s
10%
01:00
19°
1017.9 hPa
21%
12.4°
1
Windvlaag: 3.7 m/s
40%
02:00
18°
1017.9 hPa
21%
13.8°
1
Windvlaag: 2.5 m/s
48%
03:00
18°
1017.8 hPa
75%
14.1°
1
Windvlaag: 1.8 m/s
59%
04:00
18°
1017.9 hPa
29%
14.7°
1
Windvlaag: 2.1 m/s
78%
05:00
18°
1017.9 hPa
30%
15.1°
1
Windvlaag: 2.1 m/s
40%
06:00
18°
1017.7 hPa
28%
16.5°
2
Windvlaag: 5.1 m/s
85%
07:00
18°
1018.2 hPa
46%
16.6°
2
Windvlaag: 3.9 m/s
27%
08:00
18°
1018.6 hPa
92%
16.6°
2
Windvlaag: 6.3 m/s
62%
09:00
19°
1018.9 hPa 6.6 mm
97%
17.2°
1
Windvlaag: 4.2 m/s
19%
10:00
21°
1018.7 hPa 6.6 mm
99%
17.5°
3
Windvlaag: 4 m/s
58%
11:00
21°
1018.6 hPa 6.6 mm
100%
17.4°
3
Windvlaag: 4.4 m/s
28%
12:00
22°
1018.4 hPa
100%
16.8°
3
Windvlaag: 5.1 m/s
26%
Temp/Neerslag /Baro Onweer/Dauwpunt
    Temp Baro Neerslag Dauwpunt Wind Bewolking  
 06:30     20:38    Daglengte: 14:08 Vandaag
14:00
28°
Voelt als: 27.9°
1010.8 hPa   13.2°
2
39%
17:00
28°
Voelt als: 28.0°
1009.9 hPa   13.9°
3
78%
20:00
26°
1010.4 hPa   14.9°
3
84%
23:00
21°
1011.8 hPa 2.7 mm 14.5°
2
84%
 06:31     20:36    Daglengte: 14:05 Morgen
02:00
20°
1011.4 hPa 1.6 mm 17.5°
1
78%
05:00
19°
1011.1 hPa 1.9 mm 17.3°
2
73%
08:00
19°
1011.7 hPa 3.6 mm 16.7°
2
78%
11:00
21°
1012.2 hPa 1.3 mm 18.2°
2
71%
14:00
23°
1011.6 hPa 1.3 mm 18.8°
3
58%
17:00
22°
1011.2 hPa 1.1 mm 17.7°
4
53%
20:00
20°
1012.0 hPa 1.8 mm 16.2°
3
60%
23:00
19°
1013.5 hPa 1.4 mm 16.7°
2
85% warningclass
 06:32     20:34    Daglengte: 14:02 Vrijdag 19 Aug
02:00
19°
1014.0 hPa 5.0 mm 16.7°
2
84% warningclass
05:00
18°
1014.1 hPa 3.6 mm 16.6°
2
86% warningclass
08:00
18°
1015.2 hPa   17.1°
2
85%
11:00
20°
1015.8 hPa 5.0 mm 18.9°
3
57%
14:00
23°
1015.6 hPa 5.5 mm 18.9°
2
70%
17:00
24°
1015.4 hPa 3.5 mm 19.3°
3
33%
20:00
23°
1016.1 hPa 11.6 mm 16.9°
2
82%
23:00
20°
1017.6 hPa 6.1 mm 13.8°
2
12%
 06:34     20:32    Daglengte: 13:58 Zaterdag 20 Aug
02:00
18°
1017.9 hPa   13.8°
1
48%
05:00
18°
1017.9 hPa   15.1°
1
40%
08:00
18°
1018.6 hPa   16.6°
2
62%
11:00
21°
1018.6 hPa 19.8 mm 17.4°
3
28%
14:00
23°
1018.1 hPa 19.8 mm 13.0°
3
18%
17:00
23°
1018.5 hPa 14.3 mm 17.0°
1
1%
20:00
21°
1018.8 hPa 14.4 mm 15.3°
1
1%
23:00
16°
1020.5 hPa 14.4 mm 10.1°
1
0%
 06:35     20:31    Daglengte: 13:56 Zondag 21 Aug
02:00
14°
1020.2 hPa 14.4 mm 8.5°
1
0%
05:00
13°
1019.4 hPa 14.4 mm 8.4°
2
1%
08:00
16°
1019.1 hPa 14.4 mm 10.9°
1
1%
11:00
24°
1017.4 hPa 14.4 mm 12.0°
1
1%
14:00
27°
Voelt als: 26.7°
1015.4 hPa 14.4 mm 8.6°
2
1%
17:00
28°
Voelt als: 26.8°
1014.0 hPa 14.4 mm 5.4°
2
1%
20:00
21°
1014.7 hPa 14.4 mm 9.2°
1
1%
23:00
19°
1015.1 hPa 14.4 mm 7.2°
0
1%
 06:36     20:29    Daglengte: 13:53 Maandag 22 Aug
02:00
17°
1015.1 hPa 14.4 mm 7.3°
0
1%
05:00
14°
1015.1 hPa 14.4 mm 8.1°
1
0%
08:00
16°
1015.5 hPa 14.4 mm 9.6°
1
0%
11:00
24°
1014.1 hPa 14.4 mm 9.2°
1
1%
14:00
28°
Voelt als: 27.1°
1012.7 hPa 14.4 mm 9.2°
1
1%
17:00
27°
Voelt als: 26.8°
1012.1 hPa 14.4 mm 12.8°
2
1%
20:00
23°
1012.4 hPa 14.4 mm 11.5°
1
1%
23:00
21°
1013.8 hPa 14.4 mm 8.0°
1
1%
 06:38     20:27    Daglengte: 13:49 Dinsdag 23 Aug
02:00
19°
1014.7 hPa 14.4 mm 11.4°
1
1%
05:00
18°
1015.1 hPa 14.4 mm 11.6°
0
1%
08:00
18°
1015.9 hPa 14.6 mm 12.5°
1
1%
11:00
21°
1016.2 hPa 14.8 mm 14.8°
1
1%
14:00
26°
1014.6 hPa 14.8 mm 14.8°
1
1%
17:00
28°
1013.4 hPa 14.8 mm 14.5°
1
1%
20:00
23°
1014.1 hPa 14.8 mm 16.1°
1
1%
23:00
20°
1015.5 hPa 14.8 mm 16.4°
1
1%
 06:39     20:25    Daglengte: 13:46 Woensdag 24 Aug
02:00
18°
1015.2 hPa 14.8 mm 16.5°
2
1%
05:00
17°
1015.0 hPa 14.8 mm 15.9°
1
1%
08:00
19°
1015.1 hPa 14.8 mm 15.8°
1
1%
11:00
26°
1014.1 hPa   16.4°
1
0%
14:00
31°
Voelt als: 30.5°
1012.6 hPa 29.6 mm 13.9°
0
0%
20:00
24°
1012.9 hPa 29.8 mm 15.8°
2
0%
 06:40     20:23    Daglengte: 13:43 Donderdag 25 Aug
02:00
18°
1015.8 hPa 31.6 mm 17.2°
1
1%
08:00
19°
1017.2 hPa 33.1 mm 18.7°
1
1%
14:00
29°
1016.4 hPa 33.3 mm 16.3°
1
1%
20:00
24°
1016.7 hPa 33.4 mm 17.6°
1
1%
 06:42     20:21    Daglengte: 13:39 Vrijdag 26 Aug
02:00
19°
1018.0 hPa 33.4 mm 16.7°
1
0%
08:00
19°
1018.2 hPa 33.4 mm 17.1°
1
0%
14:00
31°
Voelt als: 30.5°
1015.9 hPa 33.4 mm 14.9°
2
0%
20:00
25°
1015.8 hPa 33.4 mm 16.3°
2
1%
 06:43     20:19    Daglengte: 13:36 Zaterdag 27 Aug
02:00
20°
1017.0 hPa 33.9 mm 15.8°
2
1%
08:00
19°
1018.7 hPa 0.5 mm 16.2°
1
47%
14:00
30°
Voelt als: 29.9°
1017.2 hPa 0.1 mm 15.3°
1
30%
20:00
25°
1017.6 hPa 0.3 mm 16.4°
1
40%
 06:44     20:17    Daglengte: 13:33 Zondag 28 Aug
02:00
19°
1019.2 hPa 0.7 mm 15.4°
0
39%
08:00
19°
1019.7 hPa 0.4 mm 15.5°
1
35%
14:00
31°
Voelt als: 30.4°
1018.3 hPa 0.1 mm 15.1°
1
36%
20:00
25°
1018.4 hPa 0.6 mm 16.2°
0
44%
 06:46     20:15    Daglengte: 13:29 Maandag 29 Aug
02:00
19°
1019.8 hPa 1.0 mm 15.4°
1
47%
08:00
19°
1020.3 hPa 0.7 mm 15.8°
1
41%
14:00
31°
Voelt als: 30.3°
1019.0 hPa 0.2 mm 14.7°
1
37%
20:00
25°
1018.8 hPa 0.3 mm 16.1°
1
41%
 06:47     20:13    Daglengte: 13:26 Dinsdag 30 Aug
02:00
20°
1020.1 hPa 0.3 mm 15.5°
1
41%
08:00
19°
1020.3 hPa 0.7 mm 15.8°
1
54%
14:00
30°
Voelt als: 30.2°
1018.5 hPa 0.4 mm 15.6°
1
45%
20:00
25°
1018.1 hPa 0.3 mm 15.7°
1
51%
 06:48     20:11    Daglengte: 13:23 Woensdag 31 Aug
02:00
19°
1019.2 hPa 1.6 mm 15.3°
1
46%
08:00
19°
1018.9 hPa 0.8 mm 15.7°
1
43%
14:00
28°
1017.7 hPa 0.7 mm 15.5°
1
50%
20:00
23°
1017.6 hPa 0.7 mm 16.2°
1
56%
 06:50     20:09    Daglengte: 13:19 Donderdag 01 Sep
02:00
18°
1018.7 hPa 0.9 mm 15.2°
1
46%
08:00
18°
1018.5 hPa 0.4 mm 15.3°
1
42%
  CAPE Lifted Index Hail Supercell Tornado SRH 3km CL BTM PRES CL TOP PRES Swiss DWD icon SMHI TS
 06:30     20:38    Daglengte: 14:08 Vandaag
13:00 565 J/kg -3.1 K 0 % 0 % 0 % 0 m²/s² 0 0 -1.24 3
14:00 679 J/kg -3.8 K 0 % 0 % 0 % 0 m²/s² 0 0 -2.48 3
15:00 634 J/kg -3.6 K 0 % 0 % 0 % 0 m²/s² 0 0 -2.55 3
16:00 216 J/kg -1.7 K 0 % 0 % 0 % 0 m²/s² 0 0 -0.98 3
17:00 0 J/kg -1.0 K 0 % 0 % 0 % 0 m²/s² 0 0 0.68 3
18:00 224 J/kg -1.9 K 0 % 0 % 0 % 0 m²/s² 0 0 -0.73 3
19:00 167 J/kg -1.5 K 0 % 0 % 0 % 0 m²/s² 0 0 1.14 3
20:00 346 J/kg -2.1 K 0 % 0 % 0 % 0 m²/s² 0 0 0.78 80
21:00 99 J/kg -2.3 K 0 % 0 % 0 % 0 m²/s² 0 0 0.4 61
22:00 0 J/kg -1.9 K 0 % 0 % 0 % 0 m²/s² 0 0 1.49 80
23:00 0 J/kg -0.3 K 0 % 0 % 0 % 0 m²/s² 0 0 2.73 61
 06:31     20:36    Daglengte: 14:05 Morgen
00:00 0 J/kg 1.0 K 0 % 0 % 0 % 0 m²/s² 0 0 3.25 61
01:00 0 J/kg 2.2 K 0 % 0 % 0 % 0 m²/s² 0 0 4.18 61
02:00 0 J/kg 2.7 K 0 % 0 % 0 % 0 m²/s² 0 0 4.44 3
03:00 0 J/kg 2.5 K 0 % 0 % 0 % 0 m²/s² 0 0 4.3 80
04:00 0 J/kg 2.4 K 0 % 0 % 0 % 0 m²/s² 0 0 3.72 80
05:00 0 J/kg -0.1 K 0 % 0 % 0 % 0 m²/s² 0 0 1.01 80
06:00 0 J/kg -1.5 K 0 % 0 % 0 % 0 m²/s² 0 0 -0.75 95
07:00 0 J/kg -1.4 K 0 % 0 % 0 % 0 m²/s² 0 0 -0.65 95
08:00 0 J/kg -1.3 K 0 % 0 % 0 % 0 m²/s² 0 0 0.14 3
09:00 1 J/kg -2.3 K 0 % 0 % 0 % 0 m²/s² 0 0 -0.86 80
10:00 100 J/kg -2.5 K 0 % 0 % 0 % 0 m²/s² 0 0 -0.85 3
11:00 281 J/kg -2.2 K 0 % 0 % 0 % 0 m²/s² 0 0 -0.1 80
12:00 533 J/kg -3.2 K 0 % 0 % 0 % 0 m²/s² 0 0 -1.16 80
13:00 513 J/kg -2.8 K 0 % 0 % 0 % 0 m²/s² 0 0 -0.25 3
14:00 443 J/kg -2.4 K 0 % 0 % 0 % 0 m²/s² 0 0 0.39 3
15:00 383 J/kg -1.6 K 0 % 0 % 0 % 0 m²/s² 0 0 1.52 3
16:00 205 J/kg -1.0 K 0 % 0 % 0 % 0 m²/s² 0 0 1.79 3
17:00 138 J/kg -0.5 K 0 % 0 % 0 % 0 m²/s² 0 0 2.2 3
18:00 180 J/kg -1.2 K 0 % 0 % 0 % 0 m²/s² 0 0 1.59 95
19:00 280 J/kg -1.4 K 0 % 0 % 0 % 0 m²/s² 0 0 1 80
20:00 267 J/kg -1.3 K 0 % 0 % 0 % 0 m²/s² 0 0 0.89 3
21:00 152 J/kg -1.0 K 0 % 0 % 0 % 0 m²/s² 0 0 0.92 3
22:00 103 J/kg -1.3 K 0 % 0 % 0 % 0 m²/s² 0 0 0.32 3
23:00 95 J/kg -1.3 K 0 % 0 % 0 % 0 m²/s² 0 0 0.02 95
 06:32     20:34    Daglengte: 14:02 Vrijdag 19 Aug
00:00 156 J/kg -1.9 K 0 % 0 % 0 % 0 m²/s² 0 0 -0.4 95
01:00 76 J/kg -2.2 K 0 % 0 % 0 % 0 m²/s² 0 0 -0.4 95
02:00 77 J/kg -2.8 K 0 % 0 % 0 % 0 m²/s² 0 0 -1.54 95
03:00 12 J/kg -2.4 K 0 % 0 % 0 % 0 m²/s² 0 0 -1.38 95
04:00 0 J/kg -1.1 K 0 % 0 % 0 % 0 m²/s² 0 0 -0.38 95
05:00 0 J/kg -1.9 K 0 % 0 % 0 % 0 m²/s² 0 0 -1.78 95
06:00 0 J/kg -1.1 K 0 % 0 % 0 % 0 m²/s² 0 0 -1.01 80
07:00 43 J/kg -0.6 K 0 % 0 % 0 % 0 m²/s² 0 0 -0.51 61
08:00 78 J/kg -0.6 K 0 % 0 % 0 % 0 m²/s² 0 0 -0.24 80
09:00 98 J/kg -0.5 K 0 % 0 % 0 % 0 m²/s² 0 0 -0.41 3
10:00 136 J/kg 0.5 K 0 % 0 % 0 % 0 m²/s² 0 0 0.5 3
11:00 28 J/kg 4.0 K 0 % 0 % 0 % 0 m²/s² 0 0 4 80
12:00 32 J/kg 3.2 K 0 % 0 % 0 % 0 m²/s² 0 0 3.23 2
13:00 43 J/kg 2.4 K 0 % 0 % 0 % 0 m²/s² 0 0 2.79 2
14:00 21 J/kg 0.7 K 0 % 0 % 0 % 0 m²/s² 0 0 1.24 3
15:00 145 J/kg -0.6 K 0 % 0 % 0 % 0 m²/s² 0 0 -0.12 2
16:00 392 J/kg -1.8 K 0 % 0 % 0 % 0 m²/s² 0 0 -1.5 2
17:00 305 J/kg -1.6 K 0 % 0 % 0 % 0 m²/s² 0 0 -1.6 2
18:00 450 J/kg -1.9 K 0 % 0 % 0 % 0 m²/s² 0 0 -1.87 2
19:00 444 J/kg -1.4 K 0 % 0 % 0 % 0 m²/s² 0 0 -0.44 2
20:00 373 J/kg -1.3 K 0 % 0 % 0 % 0 m²/s² 0 0 -0.13 3
21:00 210 J/kg -0.6 K 0 % 0 % 0 % 0 m²/s² 0 0 0.78 2
22:00 77 J/kg 0.6 K 0 % 0 % 0 % 0 m²/s² 0 0 2.31 1
23:00 0 J/kg 2.0 K 0 % 0 % 0 % 0 m²/s² 0 0 4.16 0
 06:34     20:32    Daglengte: 13:58 Zaterdag 20 Aug
00:00 0 J/kg 1.5 K 0 % 0 % 0 % 0 m²/s² 0 0 3.21 1
01:00 0 J/kg 0.4 K 0 % 0 % 0 % 0 m²/s² 0 0 1.51 2
02:00 0 J/kg -0.2 K 0 % 0 % 0 % 0 m²/s² 0 0 0.61 3
03:00 0 J/kg -1.3 K 0 % 0 % 0 % 0 m²/s² 0 0 -0.73 3
04:00 0 J/kg -1.8 K 0 % 0 % 0 % 0 m²/s² 0 0 -1.17 3
05:00 61 J/kg -2.0 K 0 % 0 % 0 % 0 m²/s² 0 0 -1.91 2
06:00 139 J/kg -1.9 K 0 % 0 % 0 % 0 m²/s² 0 0 -1.72 3
07:00 168 J/kg -1.5 K 0 % 0 % 0 % 0 m²/s² 0 0 -1.11 2
08:00 292 J/kg -1.2 K 0 % 0 % 0 % 0 m²/s² 0 0 -0.06 3
09:00 630 J/kg -1.8 K 0 % 0 % 0 % 0 m²/s² 0 0 -0.27 80
10:00 811 J/kg -2.4 K 0 % 0 % 0 % 0 m²/s² 0 0 0.27 80
11:00 841 J/kg -2.6 K 0 % 0 % 0 % 0 m²/s² 0 0 0.64 80
12:00 912 J/kg -2.9 K 0 % 0 % 0 % 0 m²/s² 0 0 0.61 2
Temp Baro Wind Neerslag
  EWN Forecast EWN WRFDA DWD ICON FMI HIRLAM MET Norway GFS
 06:30     20:38    Daglengte: 14:08 Vandaag
14:00 28.3° 1010.8 hPa 2.3 m/s 0.0 mm 29.2° 1009.6 hPa 3.4 m/s 2.2 mm 28.3° 1010.8 hPa 2.5 m/s -2.0 mm 27.5° 1011.2 hPa 2.7 m/s 0.0 mm 31.2° 1009.8 hPa 1.3 m/s
17:00 28.3° 1009.9 hPa 2.6 m/s 0.0 mm 22.9° 1009.7 hPa 1.6 m/s 8.8 mm 27.5° 1010.6 hPa 3.1 m/s 0.2 mm 28.9° 1009.8 hPa 2.7 m/s 0.0 mm 25.4° 1009.9 hPa 3.7 m/s
20:00 25.8° 1010.4 hPa 3.2 m/s 0.0 mm 22.4° 1010.1 hPa 2.4 m/s 14.5 mm 23.8° 1011.6 hPa 0.9 m/s 0.5 mm 26.6° 1009.5 hPa 4.2 m/s 0.0 mm 18.2° 1010.6 hPa 0.8 m/s
23:00 21.5° 1011.8 hPa 1.8 m/s 2.7 mm 19.7° 1010.7 hPa 1.3 m/s 14.5 mm 20.4° 1013.0 hPa 1.5 m/s 2.4 mm 23.2° 1010.7 hPa 1.6 m/s 0.0 mm 16.8° 1014.2 hPa 0.9 m/s
 06:31     20:36    Daglengte: 14:05 Morgen
02:00 19.6° 1011.4 hPa 1.1 m/s 1.6 mm 16.9° 1011.2 hPa 2.5 m/s 14.5 mm 19.7° 1012.6 hPa 1.1 m/s 0.7 mm 20.5° 1009.2 hPa 0.4 m/s 0.0 mm 16.9° 1013.6 hPa 1.3 m/s
05:00 19.0° 1011.1 hPa 1.6 m/s 1.9 mm 16.5° 1009.7 hPa 2.3 m/s 14.5 mm 18.7° 1012.3 hPa 0.8 m/s 2.6 mm 19.3° 1008.3 hPa 2.4 m/s 0.0 mm 16.7° 1013.2 hPa 1.0 m/s
08:00 18.6° 1011.7 hPa 1.6 m/s 3.6 mm 18.4° 1010.3 hPa 1.2 m/s 14.5 mm 18.7° 1013.0 hPa 0.6 m/s 2.3 mm 17.9° 1009.2 hPa 1.8 m/s 0.0 mm 17.0° 1013.8 hPa 0.5 m/s
11:00 20.5° 1012.2 hPa 1.9 m/s 1.3 mm 22.7° 1010.9 hPa 2.2 m/s 14.5 mm 20.4° 1012.9 hPa 0.8 m/s 1.3 mm 18.9° 1010.5 hPa 3.7 m/s 0.0 mm 21.1° 1013.5 hPa 1.5 m/s
14:00 22.5° 1011.6 hPa 2.7 m/s 1.3 mm 26.0° 1008.8 hPa 2.9 m/s 14.5 mm 22.5° 1012.5 hPa 1.8 m/s 0.9 mm 19.9° 1011.3 hPa 4.2 m/s 0.0 mm 24.1° 1011.9 hPa 3.1 m/s
17:00 22.3° 1011.2 hPa 3.6 m/s 1.1 mm 27.4° 1007.2 hPa 5.1 m/s 14.5 mm 23.2° 1011.1 hPa 2.0 m/s 0.2 mm 19.9° 1011.6 hPa 3.6 m/s 0.0 mm 24.4° 1010.9 hPa 2.6 m/s
20:00 20.3° 1012.0 hPa 2.7 m/s 1.8 mm 24.7° 1008.5 hPa 3.9 m/s 14.6 mm 21.0° 1011.9 hPa 2.8 m/s 2.3 mm 19.7° 1012.4 hPa 2.5 m/s 0.0 mm 21.1° 1011.2 hPa 2.8 m/s
23:00 19.3° 1013.5 hPa 1.8 m/s 1.4 mm 21.4° 1010.2 hPa 1.0 m/s 14.7 mm 19.4° 1012.6 hPa 1.8 m/s 0.7 mm 19.1° 1014.0 hPa 0.9 m/s 0.0 mm 18.0° 1012.8 hPa 1.4 m/s
 06:32     20:34    Daglengte: 14:02 Vrijdag 19 Aug
02:00 18.6° 1014.0 hPa 1.5 m/s 5.0 mm 18.8° 1010.6 hPa 4.1 m/s 14.7 mm 19.0° 1012.9 hPa 1.3 m/s 3.3 mm 18.3° 1014.6 hPa 0.6 m/s 0.0 mm 16.6° 1013.2 hPa 1.1 m/s
05:00 18.1° 1014.1 hPa 1.9 m/s 3.6 mm 17.5° 1010.6 hPa 2.7 m/s 14.8 mm 18.8° 1012.7 hPa 1.9 m/s 5.5 mm 18.1° 1014.6 hPa 0.9 m/s 0.0 mm 16.5° 1013.1 hPa 1.2 m/s
08:00 18.1° 1015.2 hPa 1.8 m/s 0.0 mm 17.9° 1011.5 hPa 3.1 m/s 24.6 mm 18.7° 1014.4 hPa 1.8 m/s 3.4 mm 17.7° 1015.6 hPa 0.7 m/s 0.0 mm 17.0° 1014.3 hPa 1.9 m/s
11:00 19.9° 1015.8 hPa 2.8 m/s 5.0 mm 16.1° 1014.6 hPa 4.6 m/s 34.5 mm 21.2° 1015.6 hPa 2.5 m/s 0.5 mm 19.9° 1015.5 hPa 2.7 m/s
14:00 23.1° 1015.6 hPa 2.5 m/s 5.5 mm 19.1° 1014.2 hPa 3.7 m/s 48.5 mm 24.7° 1015.5 hPa 2.5 m/s 0.0 mm 24.8° 1014.9 hPa 2.4 m/s
17:00 23.9° 1015.4 hPa 2.7 m/s 3.5 mm 21.5° 1014.0 hPa 1.5 m/s 50.5 mm 24.6° 1015.4 hPa 3.7 m/s 0.2 mm 24.7° 1014.9 hPa 2.0 m/s
20:00 22.5° 1016.1 hPa 1.7 m/s 11.6 mm 22.6° 1014.3 hPa 1.5 m/s 51.1 mm 23.4° 1016.1 hPa 0.7 m/s 0.3 mm 21.2° 1016.4 hPa 1.0 m/s
23:00 19.8° 1017.6 hPa 2.0 m/s 6.1 mm 19.4° 1015.9 hPa 4.1 m/s 51.5 mm 20.5° 1017.6 hPa 0.9 m/s 0.0 mm 19.5° 1017.8 hPa 1.4 m/s
 06:34     20:32    Daglengte: 13:58 Zaterdag 20 Aug
02:00 18.3° 1017.9 hPa 1.2 m/s 0.0 mm 18.6° 1016.7 hPa 3.6 m/s 51.5 mm 18.3° 1017.8 hPa 1.1 m/s 0.0 mm 18.2° 1018.2 hPa 1.5 m/s
05:00 17.8° 1017.9 hPa 1.4 m/s 0.0 mm 18.2° 1017.3 hPa 3.7 m/s 51.9 mm 17.9° 1017.7 hPa 1.0 m/s 0.1 mm 16.2° 1018.5 hPa 1.4 m/s
08:00 18.5° 1018.6 hPa 1.5 m/s 0.0 mm 18.5° 1018.0 hPa 4.1 m/s 56.8 mm 18.4° 1018.8 hPa 0.9 m/s 0.0 mm 18.1° 1019.1 hPa 1.3 m/s
11:00 21.4° 1018.6 hPa 3.1 m/s 19.8 mm 21.1° 1018.4 hPa 4.4 m/s 57.9 mm 21.4° 1018.7 hPa 2.8 m/s 0.8 mm 22.9° 1018.7 hPa 2.6 m/s
14:00 23.3° 1018.1 hPa 3.3 m/s 19.8 mm 25.0° 1017.7 hPa 3.5 m/s 57.9 mm 22.9° 1018.3 hPa 3.3 m/s 0.7 mm 25.9° 1017.8 hPa 3.5 m/s
17:00 23.4° 1018.5 hPa 1.3 m/s 14.3 mm 23.4° 1018.5 hPa 1.3 m/s 14.3 mm
20:00 21.1° 1018.8 hPa 1.2 m/s 14.4 mm 21.1° 1018.8 hPa 1.2 m/s 14.4 mm
23:00 15.9° 1020.5 hPa 0.8 m/s 14.4 mm 15.9° 1020.5 hPa 0.8 m/s 14.4 mm
 06:35     20:31    Daglengte: 13:56 Zondag 21 Aug
02:00 14.4° 1020.2 hPa 0.9 m/s 14.4 mm 14.4° 1020.2 hPa 0.9 m/s 14.4 mm
05:00 13.5° 1019.4 hPa 1.6 m/s 14.4 mm 13.5° 1019.4 hPa 1.6 m/s 14.4 mm
08:00 15.6° 1019.1 hPa 1.0 m/s 14.4 mm 15.6° 1019.1 hPa 1.0 m/s 14.4 mm
11:00 23.7° 1017.4 hPa 0.6 m/s 14.4 mm 23.7° 1017.4 hPa 0.6 m/s 14.4 mm
14:00 27.3° 1015.4 hPa 1.5 m/s 14.4 mm 27.3° 1015.4 hPa 1.5 m/s 14.4 mm
17:00 27.9° 1014.0 hPa 2.4 m/s 14.4 mm 27.8° 1014.0 hPa 2.4 m/s 14.4 mm
20:00 21.3° 1014.7 hPa 0.9 m/s 14.4 mm 21.3° 1014.7 hPa 0.9 m/s 14.4 mm
23:00 19.5° 1015.1 hPa 0.3 m/s 14.4 mm 19.5° 1015.1 hPa 0.3 m/s 14.4 mm
 06:36     20:29    Daglengte: 13:53 Maandag 22 Aug
02:00 16.9° 1015.1 hPa 0.2 m/s 14.4 mm 16.9° 1015.1 hPa 0.2 m/s 14.4 mm
05:00 14.2° 1015.1 hPa 0.6 m/s 14.4 mm 14.2° 1015.1 hPa 0.6 m/s 14.4 mm
08:00 16.3° 1015.5 hPa 0.6 m/s 14.4 mm 16.3° 1015.5 hPa 0.6 m/s 14.4 mm
11:00 23.7° 1014.1 hPa 0.7 m/s 14.4 mm 23.7° 1014.1 hPa 0.7 m/s 14.4 mm
14:00 28.0° 1012.7 hPa 1.2 m/s 14.4 mm 28.0° 1012.7 hPa 1.2 m/s 14.4 mm
17:00 26.8° 1012.1 hPa 1.7 m/s 14.4 mm 26.8° 1012.1 hPa 1.7 m/s 14.4 mm
20:00 23.1° 1012.4 hPa 0.7 m/s 14.4 mm 23.1° 1012.4 hPa 0.7 m/s 14.4 mm
23:00 21.1° 1013.8 hPa 1.3 m/s 14.4 mm 21.1° 1013.8 hPa 1.3 m/s 14.4 mm
 06:38     20:27    Daglengte: 13:49 Dinsdag 23 Aug
02:00 18.7° 1014.7 hPa 1.3 m/s 14.4 mm 18.7° 1014.7 hPa 1.3 m/s 14.4 mm
05:00 17.7° 1015.1 hPa 0.5 m/s 14.4 mm 17.7° 1015.1 hPa 0.5 m/s 14.4 mm
08:00 17.8° 1015.9 hPa 1.1 m/s 14.6 mm 17.8° 1015.9 hPa 1.1 m/s 14.6 mm
11:00 20.6° 1016.2 hPa 1.2 m/s 14.8 mm 20.6° 1016.2 hPa 1.2 m/s 14.8 mm
14:00 25.6° 1014.6 hPa 0.8 m/s 14.8 mm 25.6° 1014.6 hPa 0.8 m/s 14.8 mm
17:00 27.5° 1013.4 hPa 0.7 m/s 14.8 mm 27.5° 1013.4 hPa 0.7 m/s 14.8 mm
20:00 23.4° 1014.1 hPa 1.1 m/s 14.8 mm 23.4° 1014.1 hPa 1.1 m/s 14.8 mm
23:00 19.8° 1015.5 hPa 1.1 m/s 14.8 mm 19.8° 1015.5 hPa 1.1 m/s 14.8 mm
 06:39     20:25    Daglengte: 13:46 Woensdag 24 Aug
02:00 18.5° 1015.2 hPa 1.5 m/s 14.8 mm 18.5° 1015.2 hPa 1.5 m/s 14.8 mm
05:00 17.0° 1015.0 hPa 1.4 m/s 14.8 mm 17.0° 1015.0 hPa 1.4 m/s 14.8 mm
08:00 18.8° 1015.1 hPa 1.3 m/s 14.8 mm 18.8° 1015.1 hPa 1.3 m/s 14.8 mm
11:00 26.1° 1014.1 hPa 1.3 m/s 14.8 mm 26.1° 1014.1 hPa 1.3 m/s 14.8 mm
14:00 31.2° 1012.6 hPa 0.4 m/s 14.8 mm 31.2° 1012.6 hPa 0.4 m/s 14.8 mm
20:00 24.2° 1012.9 hPa 2.4 m/s 15.0 mm 24.2° 1012.9 hPa 2.4 m/s 15.0 mm
 06:40     20:23    Daglengte: 13:43 Donderdag 25 Aug
02:00 18.0° 1015.8 hPa 1.2 m/s 16.2 mm 18.0° 1015.8 hPa 1.2 m/s 16.2 mm
08:00 19.2° 1017.2 hPa 1.1 m/s 16.6 mm 19.2° 1017.2 hPa 1.1 m/s 16.6 mm
14:00 29.4° 1016.4 hPa 1.0 m/s 16.7 mm 29.4° 1016.4 hPa 1.0 m/s 16.7 mm
20:00 23.7° 1016.7 hPa 0.9 m/s 16.7 mm 23.7° 1016.7 hPa 0.9 m/s 16.7 mm
 06:42     20:21    Daglengte: 13:39 Vrijdag 26 Aug
02:00 18.9° 1018.0 hPa 1.1 m/s 16.7 mm 18.9° 1018.0 hPa 1.1 m/s 16.7 mm
08:00 19.3° 1018.2 hPa 1.2 m/s 16.7 mm 19.3° 1018.2 hPa 1.2 m/s 16.7 mm
14:00 30.9° 1015.9 hPa 2.3 m/s 16.7 mm 30.9° 1015.9 hPa 2.3 m/s 16.7 mm
20:00 25.0° 1015.8 hPa 2.1 m/s 16.8 mm 25.0° 1015.8 hPa 2.1 m/s 16.8 mm
 06:43     20:19    Daglengte: 13:36 Zaterdag 27 Aug
02:00 19.7° 1017.0 hPa 1.5 m/s 16.9 mm 19.7° 1017.0 hPa 1.5 m/s 16.9 mm
08:00 19.1° 1018.7 hPa 0.6 m/s 0.5 mm
14:00 30.1° 1017.2 hPa 1.0 m/s 0.1 mm
20:00 24.8° 1017.6 hPa 0.8 m/s 0.3 mm
 06:44     20:17    Daglengte: 13:33 Zondag 28 Aug
02:00 19.3° 1019.2 hPa 0.4 m/s 0.7 mm
08:00 18.8° 1019.7 hPa 0.8 m/s 0.4 mm
14:00 30.7° 1018.3 hPa 0.8 m/s 0.1 mm
20:00 25.0° 1018.4 hPa 0.5 m/s 0.6 mm
 06:46     20:15    Daglengte: 13:29 Maandag 29 Aug
02:00 19.5° 1019.8 hPa 0.7 m/s 1.0 mm
08:00 18.9° 1020.3 hPa 1.0 m/s 0.7 mm
14:00 30.7° 1019.0 hPa 0.7 m/s 0.2 mm
20:00 25.1° 1018.8 hPa 0.8 m/s 0.3 mm
 06:47     20:13    Daglengte: 13:26 Dinsdag 30 Aug
02:00 19.5° 1020.1 hPa 0.6 m/s 0.3 mm
08:00 19.1° 1020.3 hPa 0.9 m/s 0.7 mm
14:00 30.3° 1018.5 hPa 0.9 m/s 0.4 mm
20:00 24.7° 1018.1 hPa 0.8 m/s 0.3 mm
 06:48     20:11    Daglengte: 13:23 Woensdag 31 Aug
02:00 19.2° 1019.2 hPa 0.9 m/s 1.6 mm
08:00 18.7° 1018.9 hPa 0.9 m/s 0.8 mm
14:00 27.9° 1017.7 hPa 1.2 m/s 0.7 mm
20:00 23.0° 1017.6 hPa 0.5 m/s 0.7 mm
 06:50     20:09    Daglengte: 13:19 Donderdag 01 Sep
02:00 18.5° 1018.7 hPa 0.8 m/s 0.9 mm
08:00 18.1° 1018.5 hPa 0.7 m/s 0.4 mm
FMI Hirlam - 7.5 km EWN WRFDA - 12 km DWD ICON - 7 km GFS - 25 km Basiskaart






























































Updatetijd (Europe/Amsterdam) Resolutie Lengte Stap
FMI Hirlam 07:15, 13:15, 19:15, 01:15 7.5 km 49h 1h
EWN WRFDA 10:15, 16:15, 22:15, 04:15 12 km 73h 1h
DWD ICON 11:45, 17:45, 23:45, 05:45 7 km 75h 1h
GFS 08:15, 14:15, 20:15, 02:15 25 km 237h 3h
30+ mm
25-30 mm
20-25 mm
15-20 mm
10-15 mm
6-10 mm
4-6 mm
2-4 mm
1-2 mm
0.5-1 mm
0.2-0.5 mm
0.1-0.2 mm
30+ mm
25-30 mm
20-25 mm
15-20 mm
10-15 mm
6-10 mm
4-6 mm
2-4 mm
1-2 mm
0.5-1 mm
0.2-0.5 mm
0.1-0.2 mm
Sneeuwval
Natte sneeuw
Hagel
Vorst
30+ mm
25-30 mm
20-25 mm
15-20 mm
10-15 mm
6-10 mm
4-6 mm
2-4 mm
1-2 mm
0.5-1 mm
0.2-0.5 mm
0.1-0.2 mm
Sneeuwval
Natte sneeuw
Hagel
Vorst
Onweer
50 mm
40 mm
30 mm
26 mm
22 mm
18 mm
14 mm
10 mm
9 mm
8 mm
7 mm
6 mm
5 mm
4.5 mm
4 mm
3.5 mm
3 mm
2.5 mm
2 mm
1.5 mm
1 mm<